• In Uzbekistan
  • List of Countries
  • For 7 days
  • Water Temperature
  • Satellite Maps
  • Weather Map
  • Weather Widgets
  • user-avatar
    Login

    Hourly Weather Bizerta

    Today, 12 December, Wednesday

    Time Temperature Precipitation Wind Pressure Humidity
    00:00 +10°C° 0 mm 5 mps 764 mmHg 86%
    01:00 +11°C° 0 mm 4 mps 764 mmHg 87%
    02:00 +10°C° 0.1 mm 5 mps 764 mmHg 87%
    03:00 +10°C° 0.1 mm 5 mps 764 mmHg 87%
    04:00 +10°C° 0.1 mm 5 mps 764 mmHg 87%
    05:00 +10°C° 0.1 mm 5 mps 764 mmHg 87%
    06:00 +9°C° 0.1 mm 5 mps 764 mmHg 87%
    07:00 +9°C° 0.1 mm 5 mps 764 mmHg 87%
    08:00 +12°C° 0.1 mm 5 mps 764 mmHg 81%
    09:00 +13°C° 0.1 mm 5 mps 764 mmHg 74%
    10:00 +15°C° 0.1 mm 5 mps 764 mmHg 68%
    11:00 +16°C° 0.1 mm 5 mps 764 mmHg 64%
    12:00 +17°C° 0.1 mm 5 mps 764 mmHg 61%
    13:00 +19°C° 0.1 mm 6 mps 764 mmHg 58%
    14:00 +17°C° 0.1 mm 6 mps 763 mmHg 59%
    15:00 +17°C° 0.1 mm 6 mps 763 mmHg 61%
    16:00 +16°C° 0.1 mm 6 mps 763 mmHg 62%
    17:00 +15°C° 0.1 mm 5 mps 763 mmHg 67%
    18:00 +14°C° 0.1 mm 5 mps 763 mmHg 73%
    19:00 +13°C° 0.1 mm 5 mps 763 mmHg 78%
    20:00 +13°C° 0 mm 5 mps 763 mmHg 78%
    21:00 +13°C° 0 mm 5 mps 763 mmHg 79%
    22:00 +12°C° 0 mm 5 mps 763 mmHg 79%
    23:00 +12°C° 0.1 mm 5 mps 763 mmHg 78%

    Tomorrow, 13 December, Thursday

    Time Temperature Precipitation Wind Pressure Humidity
    00:00 +12°C° 0.1 mm 5 mps 762 mmHg 78%
    01:00 +12°C° 0.1 mm 5 mps 762 mmHg 77%
    02:00 +12°C° 0.1 mm 5 mps 762 mmHg 78%
    03:00 +12°C° 0.1 mm 5 mps 762 mmHg 79%
    04:00 +12°C° 0.1 mm 5 mps 761 mmHg 79%
    05:00 +10°C° 0.1 mm 5 mps 761 mmHg 79%
    06:00 +10°C° 0.1 mm 5 mps 761 mmHg 78%
    07:00 +10°C° 0.1 mm 5 mps 761 mmHg 78%
    08:00 +13°C° 0 mm 5 mps 761 mmHg 72%
    09:00 +14°C° 0 mm 5 mps 760 mmHg 65%
    10:00 +15°C° 0 mm 5 mps 760 mmHg 59%
    11:00 +17°C° 0 mm 5 mps 760 mmHg 54%
    12:00 +19°C° 0 mm 5 mps 759 mmHg 50%
    13:00 +20°C° 0 mm 4 mps 759 mmHg 45%
    14:00 +20°C° 0 mm 3 mps 758 mmHg 45%
    15:00 +20°C° 0 mm 2 mps 758 mmHg 45%
    16:00 +20°C° 0 mm 2 mps 757 mmHg 44%
    17:00 +19°C° 0 mm 2 mps 757 mmHg 48%
    18:00 +17°C° 0 mm 2 mps 757 mmHg 51%
    19:00 +16°C° 0 mm 3 mps 757 mmHg 54%
    20:00 +14°C° 0 mm 3 mps 756 mmHg 55%
    21:00 +14°C° 0 mm 4 mps 756 mmHg 55%
    22:00 +14°C° 0 mm 4 mps 756 mmHg 55%
    23:00 +13°C° 0 mm 4 mps 755 mmHg 54%

    Day after tomorrow, 14 December, Friday

    Time Temperature Precipitation Wind Pressure Humidity
    00:00 +13°C° 0 mm 4 mps 755 mmHg 54%
    01:00 +13°C° 0 mm 4 mps 754 mmHg 53%
    02:00 +13°C° 0.1 mm 5 mps 754 mmHg 56%
    03:00 +13°C° 0.1 mm 5 mps 753 mmHg 58%
    04:00 +13°C° 0.1 mm 5 mps 753 mmHg 61%
    05:00 +13°C° 0.2 mm 5 mps 752 mmHg 65%
    06:00 +13°C° 0.2 mm 5 mps 752 mmHg 69%
    07:00 +12°C° 0.2 mm 5 mps 752 mmHg 73%
    08:00 +12°C° 0.7 mm 5 mps 752 mmHg 78%
    09:00 +12°C° 0.7 mm 5 mps 752 mmHg 82%
    10:00 +10°C° 0.7 mm 5 mps 752 mmHg 87%
    11:00 +10°C° 2.1 mm 5 mps 752 mmHg 87%
    12:00 +9°C° 2.1 mm 6 mps 752 mmHg 88%
    13:00 +9°C° 2.1 mm 6 mps 752 mmHg 89%
    14:00 +9°C° 1.7 mm 6 mps 752 mmHg 88%
    15:00 +9°C° 1.7 mm 7 mps 752 mmHg 88%
    16:00 +10°C° 1.7 mm 7 mps 751 mmHg 87%
    17:00 +10°C° 1.3 mm 7 mps 752 mmHg 87%
    18:00 +11°C° 1.3 mm 7 mps 752 mmHg 88%
    19:00 +11°C° 1.3 mm 7 mps 753 mmHg 88%
    20:00 +11°C° 0.4 mm 7 mps 754 mmHg 87%
    21:00 +12°C° 0.4 mm 7 mps 755 mmHg 87%
    22:00 +12°C° 0.4 mm 7 mps 755 mmHg 86%
    23:00 +12°C° 0.3 mm 8 mps 756 mmHg 86%

    15 December, Saturday

    Time Temperature Precipitation Wind Pressure Humidity
    00:00 +12°C° 0.3 mm 8 mps 756 mmHg 86%
    01:00 +12°C° 0.3 mm 9 mps 757 mmHg 86%
    02:00 +12°C° 0.3 mm 9 mps 757 mmHg 86%
    03:00 +12°C° 0.3 mm 9 mps 758 mmHg 85%
    04:00 +12°C° 0.3 mm 10 mps 758 mmHg 85%
    05:00 +12°C° 0.2 mm 10 mps 759 mmHg 83%
    06:00 +12°C° 0.2 mm 11 mps 759 mmHg 82%
    07:00 +12°C° 0.2 mm 12 mps 760 mmHg 80%
    08:00 +12°C° 0.1 mm 12 mps 761 mmHg 76%
    09:00 +13°C° 0.1 mm 12 mps 761 mmHg 72%
    10:00 +13°C° 0.1 mm 12 mps 762 mmHg 69%
    11:00 +13°C° 0 mm 12 mps 762 mmHg 66%
    12:00 +13°C° 0 mm 12 mps 762 mmHg 63%
    13:00 +14°C° 0 mm 12 mps 762 mmHg 61%
    14:00 +13°C° 0 mm 12 mps 763 mmHg 62%
    15:00 +13°C° 0 mm 12 mps 763 mmHg 64%
    16:00 +13°C° 0 mm 12 mps 763 mmHg 65%
    17:00 +12°C° 0 mm 12 mps 764 mmHg 67%
    18:00 +12°C° 0 mm 11 mps 764 mmHg 69%
    19:00 +12°C° 0 mm 11 mps 765 mmHg 71%
    20:00 +12°C° 0 mm 11 mps 765 mmHg 72%
    21:00 +12°C° 0 mm 10 mps 765 mmHg 73%
    22:00 +12°C° 0 mm 10 mps 765 mmHg 74%
    23:00 +12°C° 0 mm 10 mps 765 mmHg 74%

    16 December, Sunday

    Time Temperature Precipitation Wind Pressure Humidity
    00:00 +12°C° 0 mm 10 mps 765 mmHg 75%
    01:00 +12°C° 0 mm 10 mps 765 mmHg 75%
    02:00 +12°C° 0 mm 9 mps 766 mmHg 76%
    03:00 +12°C° 0 mm 9 mps 766 mmHg 77%
    04:00 +12°C° 0 mm 8 mps 766 mmHg 78%
    05:00 +12°C° 0 mm 8 mps 766 mmHg 79%
    06:00 +12°C° 0 mm 7 mps 766 mmHg 80%
    07:00 +14°C° 0 mm 7 mps 767 mmHg 81%
    08:00 +14°C° 0 mm 7 mps 767 mmHg 80%
    09:00 +15°C° 0 mm 7 mps 767 mmHg 78%
    10:00 +15°C° 0 mm 7 mps 768 mmHg 77%
    11:00 +16°C° 0 mm 7 mps 767 mmHg 76%
    12:00 +16°C° 0 mm 7 mps 767 mmHg 75%
    13:00 +17°C° 0 mm 7 mps 767 mmHg 74%
    14:00 +16°C° 0 mm 7 mps 767 mmHg 75%
    15:00 +16°C° 0 mm 6 mps 767 mmHg 75%
    16:00 +16°C° 0 mm 6 mps 767 mmHg 76%
    17:00 +15°C° 0 mm 6 mps 767 mmHg 81%
    18:00 +14°C° 0 mm 5 mps 767 mmHg 86%
    19:00 +13°C° 0 mm 4 mps 768 mmHg 90%
    20:00 +13°C° 0 mm 4 mps 768 mmHg 90%
    21:00 +13°C° 0 mm 4 mps 768 mmHg 89%
    22:00 +13°C° 0 mm 3 mps 768 mmHg 88%
    23:00 +12°C° 0 mm 3 mps 768 mmHg 87%

    17 December, Monday

    Time Temperature Precipitation Wind Pressure Humidity
    00:00 +12°C° 0 mm 3 mps 768 mmHg 85%
    01:00 +12°C° 0 mm 3 mps 768 mmHg 84%
    02:00 +12°C° 0 mm 3 mps 768 mmHg 82%
    03:00 +12°C° 0 mm 3 mps 767 mmHg 81%
    04:00 +13°C° 0 mm 2 mps 767 mmHg 79%
    05:00 +12°C° 0 mm 3 mps 767 mmHg 78%
    06:00 +12°C° 0 mm 3 mps 767 mmHg 77%
    07:00 +12°C° 0 mm 3 mps 767 mmHg 76%
    08:00 +13°C° 0 mm 3 mps 767 mmHg 71%
    09:00 +16°C° 0 mm 3 mps 767 mmHg 67%
    10:00 +17°C° 0 mm 4 mps 767 mmHg 62%
    11:00 +19°C° 0 mm 3 mps 767 mmHg 57%
    12:00 +21°C° 0 mm 3 mps 766 mmHg 52%
    13:00 +22°C° 0 mm 3 mps 766 mmHg 47%
    14:00 +22°C° 0 mm 3 mps 766 mmHg 49%
    15:00 +22°C° 0 mm 3 mps 765 mmHg 51%
    16:00 +23°C° 0 mm 2 mps 765 mmHg 53%
    17:00 +20°C° 0 mm 3 mps 766 mmHg 57%
    18:00 +19°C° 0 mm 3 mps 766 mmHg 61%
    19:00 +17°C° 0 mm 4 mps 766 mmHg 65%
    20:00 +17°C° 0 mm 4 mps 766 mmHg 66%
    21:00 +16°C° 0 mm 5 mps 767 mmHg 67%
    22:00 +15°C° 0 mm 5 mps 767 mmHg 68%
    23:00 +15°C° 0 mm 6 mps 767 mmHg 70%
    Show more